Shungnak AP, Shungnak, AK, AK

4:34 PM AKST on November 22, 2019 (GMT -0900)
Shungnak AP, Shungnak, AK

Weather History for PAGH - September, 2019

Change the Weather History Date:

Monday, September 2, 2019

  Actual Average (WUND) Record (WUND)
Temperature  
Mean Temperature 54 °F -  
Max Temperature 55 °F - - (-1)
Min Temperature 52 °F - - (-1)
Degree Days  
Heating Degree Days 12    
Growing Degree Days 4 (Base 50)    
Moisture  
Dew Point 43 °F    
Average Humidity 69    
Maximum Humidity 80    
Minimum Humidity 57    
Precipitation  
Precipitation 0.00 in - - ()
Sea Level Pressure  
Sea Level Pressure 29.53 in    
Wind  
Wind Speed 23 mph (ESE)    
Max Wind Speed 28 mph    
Max Gust Speed 38 mph    
Visibility 10 miles    
Events Rain    
Averages and records for this station are not official NWS values.
T = Trace of Precipitation, MM = Missing Value Source: NWS Daily Summary

Daily Weather History Graph

Daily Weather History Graph

Search for Another Location

Airport or City:

Astronomy

Sep. 02, 2019 Rise Set
Actual Time 7:03 AM AKDT 9:50 PM AKDT
Civil Twilight 6:02 AM AKDT 10:50 PM AKDT
Nautical Twilight 4:31 AM AKDT 12:19 AM AKDT
Astronomical Twilight Sun does not rise Sun does not rise
Moon 12:33 PM AKDT (9/2) 10:32 PM AKDT (9/2)
Length of Visible Light 16h 47m
Length of Day
14h 46m
Waxing Crescent, 16% of the Moon is Illuminated
Sep 2
Waxing Crescent
Sep 5
First Quarter
Sep 13
Full
Sep 21
Last Quarter
Sep 28
New

Hourly Weather History & Observations

Time (AKDT) Temp. Dew Point Humidity Pressure Visibility Wind Dir Wind Speed Gust Speed Precip Events Conditions
12:56 AM 55.0 °F 39.9 °F 57% 29.52 in 10.0 mi ESE 26.5 mph 38.0 mph 0.00 in   Overcast
1:56 AM 54.0 °F 39.9 °F 59% 29.52 in 10.0 mi ESE 26.5 mph 32.2 mph N/A   Overcast
2:56 AM 53.1 °F 39.9 °F 61% 29.50 in 10.0 mi ESE 27.6 mph 35.7 mph N/A   Clear
3:56 AM 53.1 °F 39.9 °F 61% 29.50 in 10.0 mi ESE 23.0 mph 31.1 mph N/A   Clear
4:56 AM 53.1 °F 39.9 °F 61% 29.49 in 10.0 mi ESE 24.2 mph 29.9 mph N/A   Scattered Clouds
5:56 AM 53.1 °F 39.9 °F 61% 29.49 in 10.0 mi East 20.7 mph 31.1 mph N/A   Mostly Cloudy
6:56 AM 54.0 °F 39.9 °F 59% 29.49 in 10.0 mi ESE 25.3 mph 33.4 mph N/A   Overcast
7:56 AM 54.0 °F 39.9 °F 59% 29.50 in 10.0 mi ESE 26.5 mph 35.7 mph N/A   Overcast
8:56 AM 53.1 °F 41.0 °F 64% 29.50 in 10.0 mi ESE 23.0 mph 32.2 mph N/A   Overcast
9:56 AM 53.1 °F 42.1 °F 66% 29.50 in 10.0 mi ESE 24.2 mph 36.8 mph 0.00 in   Overcast
10:56 AM 53.1 °F 43.0 °F 69% 29.51 in 10.0 mi East 26.5 mph 34.5 mph N/A   Scattered Clouds
11:56 AM 52.0 °F 44.1 °F 74% 29.53 in 10.0 mi East 18.4 mph 26.5 mph 0.00 in Rain Light Rain
12:56 PM 53.1 °F 43.0 °F 69% 29.54 in 10.0 mi ESE 20.7 mph 27.6 mph 0.00 in   Overcast
1:56 PM 52.0 °F 44.1 °F 74% 29.54 in 10.0 mi ESE 23.0 mph 31.1 mph 0.00 in Rain Light Rain
2:56 PM 52.0 °F 45.0 °F 77% 29.54 in 10.0 mi ESE 19.6 mph 28.8 mph 0.00 in Rain Light Rain
3:56 PM 54.0 °F 46.0 °F 75% 29.54 in 10.0 mi East 21.9 mph 31.1 mph 0.00 in   Partly Cloudy
4:56 PM 53.1 °F 46.0 °F 77% 29.55 in 10.0 mi ESE 20.7 mph 28.8 mph 0.00 in Rain Light Rain
5:56 PM 54.0 °F 46.0 °F 75% 29.55 in 10.0 mi East 17.3 mph 26.5 mph 0.00 in   Overcast
6:56 PM 54.0 °F 46.0 °F 75% 29.55 in 10.0 mi East 17.3 mph 27.6 mph 0.00 in Rain Light Rain
7:56 PM 54.0 °F 46.9 °F 77% 29.55 in 10.0 mi East 18.4 mph 26.5 mph 0.00 in   Mostly Cloudy
8:56 PM 54.0 °F 46.0 °F 75% 29.55 in 10.0 mi East 15.0 mph - N/A   Overcast
9:56 PM 54.0 °F 46.9 °F 77% 29.56 in 10.0 mi East 17.3 mph 23.0 mph 0.00 in Rain Light Rain
10:56 PM 53.1 °F 46.9 °F 80% 29.58 in 10.0 mi East 15.0 mph - 0.00 in Rain Light Rain
11:56 PM 53.1 °F 46.9 °F 80% 29.59 in 10.0 mi East 15.0 mph 20.7 mph 0.00 in Rain Light Rain